Terminal Aerodrome Forecast
Issued by NWS

Home | Current Version | Previous Version | Text Only | Print | Product List | Glossary On
Versions: 1 2 3 4 5 6 7 8 9 10 11 12 13 14 15 16 17 18 19 20 21 22 23 24 25
000
FTUS41 KRNK 270842 AAA
TAFLWB
TAF AMD
KLWB 270842Z 2709/2806 00000KT 4SM BR SCT040 BKN080
      TEMPO 2709/2710 1/2SM FG BKN001
     FM271000 00000KT 6SM BR VCSH BKN070
      TEMPO 2710/2713 4SM -SHRA OVC025
     FM271600 23006KT P6SM BKN040
     FM272000 24006KT P6SM BKN150
     FM280000 00000KT P6SM BKN080=

USA.gov is the U.S. government's official web portal to all federal, state and local government web resources and services.